AD4CG Weather Reports


Display with metric or nautical units.
time (UTC)temp
F
wind
direction
speed
MPH
gust
MPH
rain 1hr
in
rain 24hr
in
rain mn
in
humidity
%
barometer
mb
20260505195619 78 69 1.0 14.0 0.00 0.00 0.37 35 1015.6
20260505195102 78 157 2.0 14.0 0.00 0.00 0.37 37 1015.9
20260505194553 78 227 9.0 14.0 0.00 0.00 0.37 32 1016.3
20260505194032 78 231 1.0 14.0 0.00 0.00 0.37 34 1015.9
20260505193520 78 184 5.0 14.0 0.00 0.00 0.37 34 1015.9
20260505193007 78 342 2.0 14.0 0.00 0.00 0.37 33 1016.3
20260505192454 78 254 4.0 14.0 0.00 0.00 0.37 33 1016.3
20260505191938 78 195 2.0 14.0 0.00 0.00 0.37 35 1016.6
20260505191429 78 142 3.0 14.0 0.00 0.00 0.37 34 1016.6
20260505190916 77 95 2.0 14.0 0.00 0.00 0.37 32 1016.6
20260505190401 78 246 3.0 14.0 0.00 0.00 0.37 34 1016.6
20260505185849 78 214 3.0 14.0 0.00 0.00 0.37 35 1016.6
20260505185337 78 223 5.0 14.0 0.00 0.00 0.37 33 1016.9
20260505184823 77 268 1.0 14.0 0.00 0.00 0.37 37 1016.9
20260505184310 78 133 9.0 14.0 0.00 0.00 0.37 36 1016.9
20260505183756 78 249 8.0 14.0 0.00 0.00 0.37 34 1016.9
20260505183244 78 135 3.0 14.0 0.00 0.00 0.37 36 1016.9
20260505182728 78 259 2.0 14.0 0.00 0.00 0.37 33 1016.9
20260505182216 78 274 4.0 14.0 0.00 0.00 0.37 35 1017.3
20260505181656 77 151 3.0 14.0 0.00 0.00 0.37 38 1016.9
20260505181133 78 235 6.0 14.0 0.00 0.00 0.37 36 1017.3
20260505180620 77 215 2.0 14.0 0.00 0.00 0.37 35 1017.3
20260505180107 77 331 2.0 14.0 0.00 0.00 0.37 40 1017.3
20260505175554 76 248 2.0 14.0 0.00 0.00 0.37 40 1017.3
20260505175040 76 246 5.0 14.0 0.00 0.00 0.37 38 1017.3
20260505174526 77 222 4.0 14.0 0.00 0.00 0.37 37 1017.3
20260505174016 77 216 4.0 14.0 0.00 0.00 0.37 38 1017.3
20260505173500 77 213 7.0 14.0 0.00 0.00 0.37 35 1017.3
20260505172949 77 189 2.0 14.0 0.00 0.00 0.37 36 1017.3
20260505172434 77 184 7.0 14.0 0.00 0.00 0.37 42 1017.3
20260505171924 76 124 2.0 14.0 0.00 0.00 0.37 44 1017.3
20260505171409 76 103 0.0 14.0 0.00 0.00 0.37 46 1017.3
20260505170854 76 169 4.0 14.0 0.00 0.00 0.37 48 1017.6
20260505170343 76 233 5.0 14.0 0.00 0.00 0.37 45 1017.3
20260505165830 75 246 7.0 14.0 0.00 0.00 0.37 42 1017.9
20260505165307 75 226 6.0 14.0 0.00 0.00 0.37 49 1017.6
20260505164747 75 249 7.0 14.0 0.00 0.00 0.37 49 1017.6
20260505164227 75 249 4.0 14.0 0.00 0.00 0.37 50 1017.6
20260505163704 74 193 1.0 14.0 0.00 0.00 0.37 51 1017.6
20260505163151 74 251 4.0 14.0 0.00 0.00 0.37 46 1017.9
20260505162635 74 219 5.0 13.0 0.00 0.00 0.37 53 1017.9
20260505162125 74 122 0.0 13.0 0.00 0.00 0.37 55 1017.9
20260505161550 74 220 11.0 13.0 0.00 0.00 0.37 53 1017.9
20260505161029 74 231 6.0 13.0 0.00 0.00 0.37 53 1017.9
20260505160527 74 207 2.0 13.0 0.00 0.00 0.37 54 1018.3
20260505153354 72 283 3.0 13.0 0.00 0.00 0.37 65 1018.6
20260505152840 72 223 9.0 13.0 0.00 0.00 0.37 64 1018.3
20260505152328 71 228 4.0 13.0 0.00 0.00 0.37 62 1018.3
20260505151810 71 265 5.0 13.0 0.00 0.00 0.37 62 1018.3
20260505151248 71 238 2.0 13.0 0.00 0.00 0.37 64 1018.6
20260505150747 71 168 0.0 13.0 0.00 0.00 0.37 68 1018.6
20260505150226 71 245 4.0 13.0 0.00 0.00 0.37 70 1018.6
20260505140446 67 231 3.0 12.0 0.00 0.00 0.37 82 1018.6
20260505130109 63 231 1.0 8.0 0.00 0.00 0.37 94 1018.6
20260505125035 62 241 4.0 8.0 0.00 0.00 0.37 96 1018.6
20260505124520 62 218 6.0 8.0 0.00 0.00 0.37 97 1018.3
20260505124007 61 277 0.0 8.0 0.00 0.00 0.37 99 1018.6
20260505123453 61 225 6.0 8.0 0.00 0.00 0.37 100 1018.6
20260505122936 60 233 2.0 8.0 0.00 0.00 0.37 100 1018.3
20260505122424 60 234 3.0 8.0 0.00 0.00 0.37 100 1018.3
20260505121911 59 234 1.0 8.0 0.00 0.00 0.37 100 1018.3
20260505121356 59 237 5.0 8.0 0.00 0.00 0.37 100 1018.6
20260505120838 58 230 1.0 8.0 0.00 0.00 0.37 100 1018.3
20260505120335 58 230 2.0 8.0 0.00 0.00 0.37 100 1018.3
20260505115812 57 224 3.0 8.0 0.00 0.00 0.37 100 1018.3
20260505115248 57 224 1.0 8.0 0.00 0.00 0.37 100 1018.3
20260505114735 57 224 1.0 8.0 0.00 0.00 0.37 100 1018.3
20260505114219 56 229 1.0 8.0 0.00 0.00 0.37 100 1018.3
20260505113706 56 229 1.0 8.0 0.00 0.00 0.37 100 1017.9
20260505113153 56 229 2.0 8.0 0.00 0.00 0.37 100 1017.9
20260505112635 56 229 2.0 8.0 0.00 0.00 0.37 100 1018.3
20260505112122 55 229 1.0 8.0 0.00 0.00 0.37 100 1017.9
20260505111604 55 229 0.0 8.0 0.00 0.00 0.37 100 1017.9
20260505111102 54 229 0.0 8.0 0.00 0.00 0.37 100 1017.9
20260505110601 54 229 0.0 8.0 0.00 0.00 0.37 100 1017.9
20260505101819 53 229 0.0 8.0 0.00 0.00 0.37 100 1017.3
20260505101247 53 229 0.0 8.0 0.00 0.00 0.37 100 1016.9
20260505100722 53 229 0.0 8.0 0.00 0.00 0.37 100 1017.3
20260505100208 53 229 0.0 8.0 0.00 0.00 0.37 100 1017.3
20260505095654 53 229 0.0 8.0 0.00 0.00 0.37 100 1017.3
20260505095139 53 229 0.0 8.0 0.00 0.00 0.37 100 1017.3
20260505094625 54 229 0.0 8.0 0.00 0.00 0.37 100 1016.9
20260505094110 54 229 0.0 8.0 0.00 0.00 0.37 100 1016.9
20260505093553 54 229 0.0 8.0 0.00 0.00 0.37 100 1017.3
20260505093040 54 229 0.0 8.0 0.00 0.00 0.37 100 1017.3
20260505092526 54 229 0.0 8.0 0.00 0.00 0.37 100 1016.9
20260505092011 54 229 0.0 8.0 0.00 0.00 0.37 100 1016.6
20260505091455 54 229 0.0 8.0 0.00 0.00 0.37 100 1016.9
20260505090952 55 229 0.0 8.0 0.00 0.00 0.37 100 1016.6
20260505090450 55 229 0.0 8.0 0.00 0.00 0.37 100 1016.9
20260505085945 55 229 0.0 8.0 0.00 0.00 0.37 100 1016.9
20260505085431 55 229 0.0 8.0 0.00 0.00 0.37 100 1016.6
20260505084916 55 229 1.0 8.0 0.00 0.00 0.37 100 1016.9
20260505084404 56 229 0.0 8.0 0.00 0.00 0.37 100 1016.6
20260505083849 56 229 0.0 8.0 0.00 0.00 0.37 100 1016.6
20260505083333 56 229 1.0 8.0 0.00 0.00 0.37 100 1016.9
20260505082820 56 229 2.0 8.0 0.00 0.00 0.37 100 1016.6
20260505082305 56 229 0.0 8.0 0.00 0.00 0.37 100 1016.9
20260505081757 56 229 2.0 8.0 0.00 0.00 0.37 98 1016.6
20260505081255 57 229 0.0 8.0 0.00 0.00 0.37 97 1016.6
20260505080741 57 229 2.0 8.0 0.00 0.00 0.37 96 1016.6
20260505080226 57 229 4.0 8.0 0.00 0.00 0.37 96 1016.6
20260505075711 57 229 3.0 8.0 0.00 0.00 0.37 94 1016.6
20260505075156 57 229 3.0 8.0 0.00 0.00 0.37 100 1016.9
20260505074650 58 229 3.0 8.0 0.00 0.00 0.37 100 1016.6
20260505074125 58 229 3.0 8.0 0.00 0.00 0.37 100 1016.6
20260505073610 58 229 1.0 8.0 0.00 0.00 0.37 92 1016.6
20260505073055 58 228 2.0 8.0 0.00 0.00 0.37 92 1016.6
20260505072549 58 225 3.0 8.0 0.00 0.00 0.37 92 1016.3
20260505072033 57 231 2.0 8.0 0.00 0.00 0.37 100 1016.6
20260505071522 57 221 1.0 8.0 0.00 0.00 0.37 100 1016.3
20260505071010 57 220 2.0 8.0 0.00 0.00 0.37 100 1016.3
20260505070454 57 217 1.0 8.0 0.00 0.00 0.37 100 1016.6
20260505065939 58 233 0.0 8.0 0.00 0.00 0.37 94 1016.6
20260505065427 58 232 0.0 8.0 0.00 0.00 0.37 92 1016.3
20260505064912 58 232 0.0 8.0 0.00 0.00 0.37 92 1016.9
20260505064358 58 232 0.0 8.0 0.00 0.00 0.37 92 1016.6
20260505063842 58 232 2.0 8.0 0.00 0.00 0.37 91 1016.6
20260505063326 58 232 0.0 8.0 0.00 0.00 0.37 90 1016.6
20260505062812 58 232 1.0 8.0 0.00 0.00 0.37 90 1016.6
20260505062300 58 232 3.0 8.0 0.00 0.00 0.37 90 1016.6
20260505061745 58 229 0.0 8.0 0.00 0.00 0.37 89 1016.6
20260505061240 58 229 0.0 8.0 0.00 0.00 0.37 88 1016.9
20260505060725 58 229 0.0 8.0 0.00 0.00 0.37 87 1016.6
20260505060213 59 229 0.0 8.0 0.00 0.00 0.37 86 1016.6
20260505055659 59 229 1.0 8.0 0.00 0.00 0.37 85 1016.6
20260505055143 59 228 0.0 8.0 0.00 0.00 0.37 85 1016.6
20260505054639 59 229 0.0 8.0 0.00 0.00 0.37 85 1016.6
20260505054116 59 228 0.0 8.0 0.00 0.00 0.37 84 1016.6
20260505053600 60 229 0.0 8.0 0.00 0.00 0.37 83 1016.9
20260505053047 60 228 1.0 8.0 0.00 0.00 0.37 80 1016.6
20260505052532 60 229 0.0 8.0 0.00 0.00 0.37 80 1016.6
20260505052023 60 237 1.0 8.0 0.00 0.00 0.37 78 1016.6
20260505051510 60 238 0.0 8.0 0.00 0.00 0.37 78 1016.9
20260505050947 61 184 1.0 8.0 0.00 0.00 0.37 78 1016.9
20260505050434 61 226 1.0 8.0 0.00 0.00 0.37 77 1016.9
20260505041735 62 236 6.0 8.0 0.00 0.00 0.37 71 1016.9
20260505041216 62 236 0.0 8.0 0.00 0.00 0.37 70 1016.9
20260505040702 62 270 1.0 8.0 0.00 0.00 0.37 70 1016.9
20260505040139 63 227 6.0 6.0 0.00 0.00 0.37 68 1016.9
20260505035626 63 240 3.0 16.0 0.00 0.00 0.37 68 1016.9
20260505035113 63 243 4.0 16.0 0.00 0.00 0.37 67 1016.9
20260505034604 63 230 6.0 16.0 0.00 0.00 0.37 67 1016.6
20260505034052 63 213 5.0 16.0 0.00 0.00 0.37 67 1016.9
20260505033538 63 219 3.0 16.0 0.00 0.00 0.37 66 1016.9
20260505033033 63 262 1.0 16.0 0.00 0.00 0.37 66 1016.9
20260505032518 64 241 2.0 16.0 0.00 0.00 0.37 66 1016.9
20260505032007 64 231 4.0 16.0 0.00 0.00 0.37 66 1016.6
20260505031448 64 240 6.0 16.0 0.00 0.00 0.37 66 1016.9
20260505030944 64 228 8.0 16.0 0.00 0.00 0.37 64 1016.6
20260505030432 64 193 5.0 16.0 0.00 0.00 0.37 64 1016.9
20260505025913 64 256 2.0 16.0 0.00 0.00 0.37 63 1016.6
20260505025350 64 231 4.0 16.0 0.00 0.00 0.37 61 1016.6
20260505024826 64 222 3.0 16.0 0.00 0.00 0.37 63 1016.9
20260505024311 64 168 4.0 16.0 0.00 0.00 0.37 62 1016.9
20260505023800 65 195 2.0 16.0 0.00 0.00 0.37 61 1016.6
20260505023244 65 224 7.0 16.0 0.00 0.00 0.37 61 1017.3
20260505022736 65 217 4.0 16.0 0.00 0.00 0.37 61 1016.9
20260505022224 65 253 6.0 16.0 0.00 0.00 0.37 60 1017.3
20260505021721 65 90 4.0 16.0 0.00 0.00 0.37 61 1016.6
20260505021155 65 127 1.0 16.0 0.00 0.00 0.37 60 1016.6
20260505020642 65 243 4.0 16.0 0.00 0.00 0.37 59 1016.6
20260505020127 66 260 2.0 16.0 0.00 0.00 0.37 59 1016.6
20260505015610 66 251 4.0 16.0 0.00 0.00 0.37 59 1016.6
20260505015106 66 226 3.0 16.0 0.00 0.00 0.37 59 1016.3
20260505014543 66 253 5.0 16.0 0.00 0.00 0.37 59 1016.9
20260505014036 66 179 0.0 16.0 0.00 0.00 0.37 57 1016.3
20260505013520 67 232 8.0 16.0 0.00 0.00 0.37 57 1016.3
20260505013015 67 265 2.0 16.0 0.00 0.00 0.37 58 1016.6
20260505012459 67 225 4.0 16.0 0.00 0.00 0.37 58 1016.3
20260505011937 67 237 3.0 16.0 0.00 0.00 0.37 56 1016.3
20260505011419 68 197 4.0 16.0 0.00 0.00 0.37 56 1016.3
20260505010908 68 229 7.0 16.0 0.00 0.00 0.37 53 1016.3
20260505010352 68 332 3.0 16.0 0.00 0.00 0.37 53 1015.9
20260505005847 69 246 16.0 16.0 0.00 0.00 0.37 54 1016.3
20260505005333 69 239 6.0 15.0 0.00 0.00 0.37 52 1015.9
20260505004828 69 216 9.0 15.0 0.00 0.00 0.37 53 1015.9
20260505004320 69 192 3.0 15.0 0.00 0.00 0.37 53 1015.6
20260505003803 70 234 3.0 15.0 0.00 0.00 0.37 52 1015.6
20260505003259 70 212 4.0 15.0 0.00 0.00 0.37 51 1015.6
20260505002745 70 258 1.0 15.0 0.00 0.00 0.37 47 1015.2
20260505002232 71 245 3.0 15.0 0.00 0.00 0.37 43 1015.2
20260505001718 71 262 2.0 15.0 0.00 0.00 0.37 40 1015.2
20260505001202 71 234 3.0 15.0 0.00 0.00 0.37 32 1015.2
20260505000652 71 241 7.0 15.0 0.00 0.00 0.37 26 1015.2
20260505000124 72 234 4.0 15.0 0.00 0.00 0.37 26 1015.2
20260504235602 72 211 2.0 15.0 0.00 0.00 0.37 25 1015.2
20260504235046 72 227 3.0 15.0 0.00 0.00 0.37 24 1014.9
20260504234530 73 232 2.0 15.0 0.00 0.00 0.37 23 1015.2
20260504234023 73 211 1.0 15.0 0.00 0.00 0.37 21 1014.9
20260504233459 73 269 4.0 15.0 0.00 0.00 0.37 22 1014.9
20260504232944 74 206 3.0 15.0 0.00 0.00 0.37 21 1014.6
20260504232429 74 221 3.0 15.0 0.00 0.00 0.37 20 1014.6
20260504231914 74 221 0.0 15.0 0.00 0.00 0.37 18 1014.6
20260504231400 74 253 8.0 15.0 0.00 0.00 0.37 18 1014.6
20260504230845 74 213 4.0 15.0 0.00 0.00 0.37 15 1014.2
20260504230331 74 236 7.0 15.0 0.00 0.00 0.37 15 1014.2
20260504225825 75 242 2.0 15.0 0.00 0.00 0.37 15 1014.2
20260504225313 75 229 4.0 15.0 0.00 0.00 0.37 14 1014.6
20260504224757 75 241 0.0 15.0 0.00 0.00 0.37 13 1014.6
20260504224252 75 238 3.0 15.0 0.00 0.00 0.37 13 1014.6
20260504223740 76 238 4.0 15.0 0.00 0.00 0.37 9 1014.2
20260504223225 76 259 3.0 15.0 0.00 0.00 0.37 12 1014.6
20260504222719 76 247 3.0 15.0 0.00 0.00 0.37 11 1014.6
20260504222156 76 261 7.0 15.0 0.00 0.00 0.37 10 1014.6
20260504221638 76 245 8.0 15.0 0.00 0.00 0.37 9 1014.6
20260504221131 76 253 8.0 15.0 0.00 0.00 0.37 13 1014.6
20260504220611 76 140 4.0 15.0 0.00 0.00 0.37 10 1014.2
20260504220047 76 191 4.0 15.0 0.00 0.00 0.37 9 1014.6
20260504215532 77 271 3.0 15.0 0.00 0.00 0.37 13 1014.6
20260504215028 77 216 3.0 15.0 0.00 0.00 0.37 11 1014.6
20260504214515 77 248 3.0 15.0 0.00 0.00 0.37 16 1014.6
20260504214002 77 209 2.0 15.0 0.00 0.00 0.37 11 1014.6
20260504213456 77 250 4.0 15.0 0.00 0.00 0.37 11 1014.6
20260504212947 77 233 5.0 15.0 0.00 0.00 0.37 7 1014.6
20260504212445 77 245 7.0 15.0 0.00 0.00 0.37 9 1014.6
20260504211933 77 84 3.0 15.0 0.00 0.00 0.37 9 1014.6
20260504211420 77 239 11.0 15.0 0.00 0.00 0.37 5 1014.6
20260504210911 77 232 10.0 15.0 0.00 0.00 0.37 9 1014.6
20260504210408 77 221 7.0 15.0 0.00 0.00 0.37 7 1014.6
20260504205905 77 11 1.0 14.0 0.00 0.00 0.37 10 1014.6
20260504205344 77 243 7.0 14.0 0.00 0.00 0.37 7 1014.9
20260504204819 77 233 3.0 14.0 0.00 0.00 0.37 9 1014.6
20260504204304 77 220 6.0 14.0 0.00 0.00 0.37 7 1014.9
20260504203752 77 220 3.0 14.0 0.00 0.00 0.37 10 1014.9
20260504203230 77 232 6.0 14.0 0.00 0.00 0.37 8 1015.2
20260504202724 77 229 2.0 14.0 0.00 0.00 0.37 10 1014.9
20260504202201 76 217 9.0 14.0 0.00 0.00 0.37 10 1014.9
20260504201639 76 234 6.0 14.0 0.00 0.00 0.37 7 1015.2
20260504201117 76 243 8.0 14.0 0.00 0.00 0.37 11 1014.6
20260504200543 77 233 8.0 14.0 0.00 0.00 0.37 9 1014.9
20260504200020 77 235 11.0 14.0 0.00 0.00 0.37 10 1014.9